| time (UTC) | temp F | wind direction | speed MPH | gust MPH | rain 1hr in | rain 24hr in | rain mn in | humidity % | barometer mb |
| 20260504231511 | 69 | 44 | 0.0 | 6.0 | 0.00 | 0.00 | 0.00 | 53 | 1007.9 |
| 20260504230011 | 70 | 340 | 0.0 | 5.0 | 0.00 | 0.00 | 0.00 | 51 | 1007.8 |
| 20260504224510 | 70 | 5 | 1.0 | 4.0 | 0.00 | 0.00 | 0.00 | 51 | 1007.7 |
| 20260504223010 | 72 | 349 | 1.0 | 5.0 | 0.00 | 0.00 | 0.00 | 48 | 1008.1 |
| 20260504221511 | 71 | 348 | 2.0 | 6.0 | 0.00 | 0.00 | 0.00 | 48 | 1008.2 |
| 20260504220010 | 71 | 311 | 2.0 | 7.0 | 0.00 | 0.00 | 0.00 | 49 | 1008.2 |
| 20260504214510 | 72 | 28 | 1.0 | 5.0 | 0.00 | 0.00 | 0.00 | 47 | 1007.9 |
| 20260504213024 | 73 | 360 | 1.0 | 9.0 | 0.00 | 0.00 | 0.00 | 47 | 1007.7 |
| 20260504211510 | 73 | 36 | 1.0 | 10.0 | 0.00 | 0.00 | 0.00 | 47 | 1007.8 |
| 20260504210008 | 73 | 355 | 3.0 | 11.0 | 0.00 | 0.00 | 0.00 | 45 | 1007.8 |
| 20260504204508 | 72 | 341 | 1.0 | 10.0 | 0.00 | 0.00 | 0.00 | 47 | 1007.8 |
| 20260504203006 | 74 | 12 | 3.0 | 8.0 | 0.00 | 0.00 | 0.00 | 44 | 1007.7 |
| 20260504201505 | 76 | 56 | 3.0 | 12.0 | 0.00 | 0.00 | 0.00 | 42 | 1007.8 |
| 20260504200006 | 75 | 30 | 2.0 | 7.0 | 0.00 | 0.00 | 0.00 | 44 | 1008.0 |
| 20260504194606 | 73 | 338 | 1.0 | 6.0 | 0.00 | 0.00 | 0.00 | 46 | 1008.1 |
| 20260504193059 | 74 | 328 | 2.0 | 5.0 | 0.00 | 0.00 | 0.00 | 46 | 1008.2 |
| 20260504191621 | 73 | 13 | 1.0 | 8.0 | 0.00 | 0.00 | 0.00 | 45 | 1008.4 |
| 20260504190059 | 73 | 355 | 2.0 | 12.0 | 0.00 | 0.00 | 0.00 | 46 | 1008.7 |
| 20260504184602 | 72 | 267 | 2.0 | 9.0 | 0.00 | 0.00 | 0.00 | 50 | 1008.7 |
| 20260504183050 | 72 | 51 | 1.0 | 10.0 | 0.00 | 0.00 | 0.00 | 49 | 1009.1 |
| 20260504181548 | 72 | 27 | 2.0 | 8.0 | 0.00 | 0.00 | 0.00 | 51 | 1009.2 |
| 20260504180047 | 70 | 346 | 2.0 | 10.0 | 0.00 | 0.00 | 0.00 | 54 | 1009.2 |
| 20260504174544 | 70 | 28 | 3.0 | 10.0 | 0.00 | 0.00 | 0.00 | 49 | 1009.4 |
| 20260504173044 | 70 | 26 | 2.0 | 12.0 | 0.00 | 0.00 | 0.00 | 51 | 1009.6 |
| 20260504171543 | 68 | 345 | 2.0 | 9.0 | 0.00 | 0.00 | 0.00 | 54 | 1009.8 |
| 20260504081507 | 49 | 275 | 0.0 | 2.0 | 0.00 | 0.00 | 0.00 | 64 | 1013.9 |
| 20260504060104 | 46 | 53 | 0.0 | 0.0 | 0.00 | 0.00 | 0.00 | 73 | 1014.3 |
| 20260504044548 | 46 | 53 | 0.0 | 0.0 | 0.00 | 0.00 | 0.00 | 74 | 1014.5 |
| 20260504043046 | 46 | 53 | 0.0 | 0.0 | 0.00 | 0.00 | 0.00 | 72 | 1014.6 |
| 20260504041543 | 46 | 53 | 0.0 | 0.0 | 0.00 | 0.00 | 0.00 | 75 | 1014.6 |
| 20260504040041 | 46 | 53 | 0.0 | 0.0 | 0.00 | 0.00 | 0.00 | 76 | 1014.6 |
| 20260504034550 | 46 | 53 | 0.0 | 0.0 | 0.00 | 0.00 | 0.00 | 74 | 1014.6 |
| 20260504033050 | 45 | 53 | 0.0 | 0.0 | 0.00 | 0.00 | 0.00 | 75 | 1014.6 |
| 20260504031545 | 45 | 53 | 0.0 | 0.0 | 0.00 | 0.00 | 0.00 | 74 | 1014.6 |
| 20260504030045 | 45 | 53 | 0.0 | 0.0 | 0.00 | 0.00 | 0.00 | 70 | 1014.8 |
| 20260504024543 | 46 | 53 | 0.0 | 0.0 | 0.00 | 0.00 | 0.00 | 68 | 1014.9 |
| 20260504023037 | 46 | 53 | 0.0 | 1.0 | 0.00 | 0.00 | 0.00 | 62 | 1014.8 |
| 20260504021537 | 47 | 53 | 0.0 | 0.0 | 0.00 | 0.00 | 0.00 | 63 | 1014.8 |
| 20260504020036 | 48 | 53 | 0.0 | 0.0 | 0.00 | 0.00 | 0.00 | 60 | 1014.7 |
| 20260504014539 | 49 | 53 | 0.0 | 0.0 | 0.00 | 0.00 | 0.00 | 58 | 1014.8 |
| 20260504013038 | 50 | 53 | 0.0 | 0.0 | 0.00 | 0.00 | 0.00 | 54 | 1014.7 |
| 20260504011534 | 51 | 53 | 0.0 | 0.0 | 0.00 | 0.00 | 0.00 | 51 | 1014.7 |
| 20260504010034 | 52 | 53 | 0.0 | 0.0 | 0.00 | 0.00 | 0.00 | 48 | 1014.7 |
| 20260504004533 | 52 | 53 | 0.0 | 0.0 | 0.00 | 0.00 | 0.00 | 47 | 1014.5 |
| 20260504003040 | 53 | 53 | 0.0 | 0.0 | 0.00 | 0.00 | 0.00 | 45 | 1014.5 |
| 20260504001532 | 54 | 53 | 0.0 | 1.0 | 0.00 | 0.00 | 0.00 | 43 | 1014.4 |
| 20260504000031 | 55 | 61 | 0.0 | 1.0 | 0.00 | 0.00 | 0.00 | 43 | 1014.5 |
| 20260503234529 | 56 | 53 | 0.0 | 2.0 | 0.00 | 0.00 | 0.00 | 39 | 1014.5 |
| 20260503233036 | 56 | 34 | 0.0 | 2.0 | 0.00 | 0.00 | 0.00 | 40 | 1014.6 |